Regional Weather Roundup
Issued by NWS Cleveland, OH

Home | Current Version | Previous Version | Text Only | Print | Product List | Glossary On
Versions: 1 2 3 4 5 6 7 8 9 10 11 12 13 14 15 16 17 18 19 20 21 22 23 24 25 26 27 28 29 30 31 32 33 34 35 36 37 38 39 40 41 42 43 44 45 46 47 48 49 50
000
ASUS41 KCLE 201912
RWRCLE
OHIO REGIONAL WEATHER ROUNDUP
NATIONAL WEATHER SERVICE WILMINGTON, OH
300 PM EDT SUN AUG 20 2017

NOTE: "FAIR" INDICATES FEW OR NO CLOUDS BELOW 12,000 FEET WITH NO
SIGNIFICANT WEATHER AND/OR OBSTRUCTIONS TO VISIBILITY.

OHZ001>008-015>018-024>027-034-035-043-044-202000-
   NORTHWEST OHIO

CITY           SKY/WX    TMP DP  RH WIND       PRES   REMARKS
DEFIANCE       FAIR      83  64  52 CALM      30.07F
FINDLAY        FAIR      86  64  47 W5        30.08F
TOLEDO EXPRESS FAIR      83  62  49 S8        30.08F
TOLEDO EXEC    FAIR      84  62  47 S7        30.09F
LIMA           FAIR      85  69  58 SE7       30.08F
$$

OHZ009>014-019>023-028>033-038-089-202000-
   NORTHEAST OHIO

CITY           SKY/WX    TMP DP  RH WIND       PRES   REMARKS
CLE-HOPKINS    FAIR      88  56  33 VRB3      30.12F
CLE-LAKEFRONT  FAIR      80  66  62 N9        30.10F
CUY CO. ARPT   MOSUNNY   84  63  48 NW12      30.12F
LORAIN-ELYRIA    N/A    N/A N/A N/A MISG      30.11F
ASHTABULA      FAIR      81  58  45 SW5       30.14F
AKRON-CANTON   FAIR      85  56  37 S8        30.13F
WOOSTER        FAIR      82  60  47 VRB6      30.13F
MANSFIELD      CLOUDY    82  65  56 S7        30.13F
YOUNGSTOWN     FAIR      83  56  39 VRB7      30.14F
$$

OHZ042-051>053-060>062-070>072-077>081-202000-
  SOUTHWEST OHIO

CITY           SKY/WX    TMP DP  RH WIND       PRES   REMARKS
CINC-COVINGTON FAIR      89  68  49 SW8       30.08F HX  93
CINC-LUNKEN    FAIR      89  68  49 S5        30.06F HX  93
HAMILTON       FAIR      90  66  45 VRB6      30.07F HX  92
DAYTON         FAIR      88  64  44 SW13G20   30.09F
WRIGHT-PAT AFB DRIZZLE   87  65  47 W5        30.07F
DAYTON GENERAL FAIR      85  65  51 S6        30.08F
WILMINGTON     FAIR      86  70  58 SW8       30.09F HX  90
$$

OHZ036-037-039>041-045>050-054>059-063>069-073>076-082>088-202000-
  CENTRAL AND SOUTHEAST OHIO

CITY           SKY/WX    TMP DP  RH WIND       PRES   REMARKS
COLUMBUS       PTSUNNY   86  70  58 S7        30.10F HX  90
OSU AIRPORT    PTSUNNY   84  69  60 S9        30.10F
BOLTON FIELD   PTSUNNY   84  72  65 S7        30.11F
RICKENBACK AFB FAIR      85  70  61 SW5       30.09F
NEWARK         FAIR      84  67  56 SW6       30.11F
MARION         PTSUNNY   84  65  52 S8        30.11F
LANCASTER      PTSUNNY   85  70  60 VRB3      30.11F
ZANESVILLE     FAIR      84  65  52 SE3       30.11F
NEW PHILLY     FAIR      84  64  50 CALM      30.13F
$$



USA.gov is the U.S. government's official web portal to all federal, state and local government web resources and services.